Weather in Ringkobing

Denmark     56°05′23″N   8°14′39″E
temp.,
°C
wind,
m/s
gust,
m/s
humid.,
%
clouds,
%
prec.,
mm/h
press.,
hPa
HPBL,
m
15 april, thu
thu1523:00+5ese23747 0.1 103181
02:00+4ne337413 0.1 1031102
05:00+3e22705 0.0 103271
08:00+3ene336491 0.0 1033114
11:00+6nne235350 0.0 1034426
14:00+8nnw4552100 0.0 1033946
17:00+8n6757100 0.0 1032757
20:00+7ne576393 0.1 1032160
16 april, fri
fri1623:00+5nne586957 0.0 1033178
02:00+4nne477560 0.0 1032173
05:00+3nne588132 0.0 1032185
08:00+4ne477562 0.0 1032188
11:00+8ne455710 0.0 1031563
14:00+9n455299 0.0 1030832
17:00+9n6856100 0.0 1029710
20:00+7nne696172 0.0 1030225
17 april, sat
sat1723:00+5nne59742 0.0 1030200
02:00+4n59794 0.0 1029230
05:00+4nne598115 0.0 1028191
08:00+5ne5107099 0.0 1028304
11:00+7ne6968100 0.0 1028439
14:00+9ene4665100 0.0 1027472
17:00+8ene5772100 0.0 1027331
20:00+7ne4574100 0.0 1026219
18 april, sun
sun1823:00+7nne3378100 0.0 102661
02:00+7ne2284100 0.1 102625
05:00+7nne2285100 0.0 102517
08:00+7nne118548 0.3 102542
11:00+9nw117534 0.0 1025279
14:00+8wnw548076 0.0 1025241
17:00+8nnw3481100 0.0 1024101
20:00+8nw3383100 0.0 102466
19 april, mon
mon1923:00+8n2287100 0.0 102512
02:00+8e2284100 0.0 102517
05:00+8ene3378100 0.0 102438
08:00+8e3480100 0.0 102470
11:00+10ese357899 0.0 1024351
14:00+12sse3467100 0.1 1023611
17:00+9wnw558894 0.0 1022122
20:00+9nnw338635 0.1 102244